HAZ184 VHHH-RJFF

Flight info

Callsign HAZ184
Flight time N/A
Altitude 35000
Route DALOL V631 ENVAR M750 PILOX/N0466F370 M750 MOMPA Y25 GOKYO/N0462F380 Y25 ISKUP
Aircraft B738/M-SDE2E3FGHIRWXY/LB1

Departure

Time 2026-05-08 03:43
Airport Hong Kong International Airport (VHHH)

Arrival

Time N/A
Airport Fukuoka Airport (RJFF)
Time Latitude Longitude Altitude Speed Heading
2026-05-08 03:26 22.31320 113.92540 34 ft 0 kts 26°
2026-05-08 03:33 22.31319 113.92539 34 ft 1 kts 26°
2026-05-08 03:34 22.31306 113.92532 34 ft 2 kts 26°
2026-05-08 03:34 22.31293 113.92525 34 ft 2 kts 26°
2026-05-08 03:34 22.31279 113.92518 34 ft 2 kts 26°
2026-05-08 03:34 22.31266 113.92511 34 ft 1 kts 26°
2026-05-08 03:35 22.31256 113.92506 34 ft 2 kts
2026-05-08 03:35 22.31242 113.92509 34 ft 2 kts 325°
2026-05-08 03:35 22.31234 113.92518 34 ft 0 kts 299°
2026-05-08 03:36 22.31231 113.92526 34 ft 0 kts 295°
2026-05-08 03:37 22.31231 113.92525 34 ft 0 kts 295°
2026-05-08 03:37 22.31243 113.92499 34 ft 8 kts 296°
2026-05-08 03:38 22.31284 113.92409 34 ft 16 kts 296°
2026-05-08 03:38 22.31342 113.92281 34 ft 19 kts 296°
2026-05-08 03:38 22.31399 113.92157 34 ft 17 kts 296°
2026-05-08 03:38 22.31479 113.92075 34 ft 16 kts 340°
2026-05-08 03:39 22.31580 113.92036 34 ft 14 kts 345°
2026-05-08 03:39 22.31648 113.92096 34 ft 13 kts 68°
2026-05-08 03:39 22.31678 113.92187 34 ft 12 kts 71°
2026-05-08 03:39 22.31706 113.92271 34 ft 11 kts 70°
2026-05-08 03:40 22.31733 113.92356 34 ft 12 kts 76°
2026-05-08 03:40 22.31760 113.92445 34 ft 13 kts 71°
2026-05-08 03:40 22.31792 113.92542 34 ft 14 kts 70°
2026-05-08 03:40 22.31826 113.92643 34 ft 14 kts 71°
2026-05-08 03:41 22.31860 113.92752 34 ft 15 kts 68°
2026-05-08 03:41 22.31899 113.92867 34 ft 16 kts 73°
2026-05-08 03:41 22.31934 113.92984 34 ft 13 kts 69°
2026-05-08 03:41 22.32000 113.93049 34 ft 13 kts
2026-05-08 03:42 22.32086 113.93037 34 ft 11 kts 339°
2026-05-08 03:42 22.32113 113.92967 34 ft 10 kts 253°
2026-05-08 03:42 22.32089 113.92893 34 ft 13 kts 251°
2026-05-08 03:42 22.32005 113.92632 34 ft 69 kts 251°
2026-05-08 03:43 22.31779 113.91927 34 ft 128 kts 251°
2026-05-08 03:43 22.31427 113.90815 37 ft 177 kts 253°
2026-05-08 03:43 22.30996 113.89489 354 ft 195 kts 251°
2026-05-08 03:43 22.30553 113.88099 979 ft 199 kts 251°
2026-05-08 03:44 22.30049 113.86655 1385 ft 219 kts 249°
2026-05-08 03:44 22.29493 113.85055 1898 ft 227 kts 252°
2026-05-08 03:44 22.29031 113.83519 2578 ft 221 kts 253°
2026-05-08 03:44 22.28538 113.81927 3139 ft 222 kts 252°
2026-05-08 03:45 22.28018 113.80335 3521 ft 234 kts 251°
2026-05-08 03:45 22.27455 113.78646 3979 ft 241 kts 251°
2026-05-08 03:45 22.26890 113.76985 4824 ft 229 kts 250°
2026-05-08 03:45 22.26330 113.75384 5353 ft 234 kts 249°
2026-05-08 03:46 22.25702 113.73624 5233 ft 270 kts 249°
2026-05-08 03:46 22.24998 113.71765 6037 ft 261 kts 241°
2026-05-08 03:46 22.23856 113.70327 6806 ft 257 kts 212°
2026-05-08 03:46 22.22161 113.69796 7344 ft 262 kts 178°
2026-05-08 03:47 22.20392 113.70307 7944 ft 265 kts 154°
2026-05-08 03:47 22.18825 113.71382 8528 ft 269 kts 145°
2026-05-08 03:47 22.17271 113.72535 9129 ft 272 kts 150°
2026-05-08 03:47 22.15622 113.73511 9750 ft 273 kts 156°
2026-05-08 03:48 22.13925 113.74335 10340 ft 276 kts 159°
2026-05-08 03:48 22.12122 113.75223 10948 ft 281 kts 152°
2026-05-08 03:48 22.10448 113.76426 11328 ft 295 kts 143°
2026-05-08 03:48 22.08843 113.77888 11680 ft 309 kts 140°
2026-05-08 03:49 22.07334 113.79625 11965 ft 326 kts 125°
2026-05-08 03:49 22.06304 113.81838 12305 ft 340 kts 108°
2026-05-08 03:49 22.05673 113.84377 12589 ft 355 kts 103°
2026-05-08 03:49 22.05143 113.87042 12875 ft 370 kts 102°
2026-05-08 03:50 22.04627 113.89792 13177 ft 384 kts 102°
2026-05-08 03:50 22.04089 113.92654 13388 ft 399 kts 102°
2026-05-08 03:50 22.03518 113.95631 13638 ft 412 kts 102°
2026-05-08 03:50 22.02919 113.98705 14069 ft 419 kts 102°
2026-05-08 03:51 22.02311 114.01791 14551 ft 424 kts 102°
2026-05-08 03:51 22.01693 114.04893 15080 ft 428 kts 102°
2026-05-08 03:51 22.01048 114.08051 15637 ft 430 kts 103°
2026-05-08 03:51 22.00298 114.11159 16185 ft 433 kts 107°
2026-05-08 03:52 21.99305 114.14217 16719 ft 436 kts 112°
2026-05-08 03:52 21.98065 114.17230 17190 ft 440 kts 116°
2026-05-08 03:52 21.96682 114.20195 17677 ft 443 kts 117°
2026-05-08 03:52 21.95231 114.23134 18171 ft 446 kts 118°
2026-05-08 03:53 21.93745 114.26093 18628 ft 449 kts 118°
2026-05-08 03:53 21.92259 114.29051 19077 ft 453 kts 118°
2026-05-08 03:53 21.90775 114.32029 19509 ft 456 kts 118°
2026-05-08 03:53 21.89268 114.35082 19996 ft 458 kts 118°
2026-05-08 03:54 21.87779 114.38116 20467 ft 460 kts 117°
2026-05-08 03:54 21.86303 114.41193 20874 ft 463 kts 116°
2026-05-08 03:54 21.84979 114.44359 21306 ft 466 kts 111°
2026-05-08 03:54 21.83873 114.47617 21660 ft 470 kts 108°
2026-05-08 03:55 21.82898 114.50980 22163 ft 470 kts 106°
2026-05-08 03:55 21.82002 114.54365 22555 ft 473 kts 105°
2026-05-08 03:55 21.81133 114.57799 22965 ft 476 kts 104°
2026-05-08 03:55 21.80267 114.61289 23300 ft 480 kts 104°
2026-05-08 03:56 21.79408 114.64746 23772 ft 481 kts 104°
2026-05-08 03:56 21.78535 114.68236 24074 ft 486 kts 105°
2026-05-08 03:56 21.77646 114.71754 24486 ft 488 kts 105°
2026-05-08 03:56 21.76754 114.75254 24826 ft 491 kts 105°
2026-05-08 03:57 21.75853 114.78800 25158 ft 494 kts 104°
2026-05-08 03:57 21.75091 114.82411 25519 ft 496 kts 101°
2026-05-08 03:57 21.74565 114.86115 25839 ft 499 kts 96°
2026-05-08 03:57 21.74288 114.89844 26143 ft 502 kts 92°
2026-05-08 03:58 21.74176 114.93582 26733 ft 498 kts 90°
2026-05-08 03:58 21.74155 114.97291 27288 ft 496 kts 89°
2026-05-08 03:58 21.74178 115.00992 27696 ft 496 kts 89°
2026-05-08 03:58 21.74219 115.04693 28141 ft 496 kts 88°
2026-05-08 03:59 21.74260 115.08387 28565 ft 496 kts 88°
2026-05-08 03:59 21.74293 115.12080 28968 ft 496 kts 89°
2026-05-08 03:59 21.74316 115.15801 29454 ft 495 kts 89°
2026-05-08 03:59 21.74329 115.19474 29938 ft 494 kts 89°
2026-05-08 04:00 21.74335 115.23163 30369 ft 493 kts 89°
2026-05-08 04:00 21.74330 115.30492 31139 ft 494 kts 89°
2026-05-08 04:00 21.74322 115.34180 31556 ft 493 kts 89°
2026-05-08 04:01 21.74313 115.37856 31966 ft 492 kts 89°
2026-05-08 04:01 21.74302 115.41544 32346 ft 492 kts 88°
2026-05-08 04:01 21.74291 115.45223 32689 ft 493 kts 88°
2026-05-08 04:01 21.74279 115.48857 33080 ft 492 kts 88°
2026-05-08 04:02 21.74265 115.52564 33476 ft 491 kts 88°
2026-05-08 04:02 21.74251 115.56241 33855 ft 491 kts 88°
2026-05-08 04:02 21.74235 115.59900 34267 ft 490 kts 88°
2026-05-08 04:02 21.74221 115.63573 34663 ft 488 kts 87°
2026-05-08 04:03 21.74207 115.67111 34965 ft 488 kts 88°
2026-05-08 04:03 21.74162 115.78215 34962 ft 488 kts 87°
2026-05-08 04:04 21.74129 115.85511 34963 ft 489 kts 88°
2026-05-08 04:04 21.74091 115.92857 34964 ft 488 kts 87°
2026-05-08 04:05 21.74049 116.00150 34961 ft 487 kts 87°
2026-05-08 04:05 21.74004 116.07472 34961 ft 488 kts 88°
2026-05-08 04:06 21.73955 116.14816 34957 ft 489 kts 88°
2026-05-08 04:06 21.73905 116.22166 34959 ft 490 kts 88°
2026-05-08 04:07 21.73849 116.29501 34953 ft 489 kts 87°
2026-05-08 04:07 21.73791 116.36826 34945 ft 488 kts 87°
2026-05-08 04:08 21.73730 116.44143 34946 ft 488 kts 88°
2026-05-08 04:08 21.73668 116.51417 34945 ft 488 kts 87°
2026-05-08 04:09 21.73601 116.58730 34946 ft 489 kts 87°
2026-05-08 04:09 21.73530 116.66034 34946 ft 488 kts 88°
2026-05-08 04:10 21.73479 116.73326 34944 ft 488 kts 86°
2026-05-08 04:10 21.74248 116.80529 34947 ft 481 kts 72°
2026-05-08 04:11 21.76322 116.87340 34947 ft 477 kts 65°
2026-05-08 04:11 21.78778 116.93919 34946 ft 476 kts 64°
2026-05-08 04:12 21.81293 117.00525 34946 ft 475 kts 64°
2026-05-08 04:12 21.83749 117.07114 34946 ft 477 kts 64°
2026-05-08 04:13 21.86172 117.13742 34947 ft 478 kts 64°
2026-05-08 04:13 21.88578 117.20396 34946 ft 478 kts 65°
2026-05-08 04:14 21.90981 117.27074 34946 ft 478 kts 65°
2026-05-08 04:14 21.93383 117.33768 34946 ft 477 kts 65°
2026-05-08 04:15 21.95772 117.40432 34946 ft 477 kts 65°
2026-05-08 04:15 21.98177 117.47096 34946 ft 477 kts 64°
2026-05-08 04:16 22.01031 117.53466 34948 ft 472 kts 56°
2026-05-08 04:16 22.04401 117.59538 34946 ft 471 kts 53°
2026-05-08 04:17 22.07895 117.65530 34947 ft 473 kts 54°
2026-05-08 04:17 22.11409 117.71587 34948 ft 473 kts 54°
2026-05-08 04:18 22.14883 117.77649 34950 ft 474 kts 54°
2026-05-08 04:18 22.18314 117.83688 34949 ft 473 kts 54°
2026-05-08 04:19 22.21749 117.89758 34951 ft 473 kts 54°
2026-05-08 04:19 22.25197 117.95865 34953 ft 473 kts 54°
2026-05-08 04:20 22.28210 118.01206 34957 ft 474 kts 54°
2026-05-08 04:20 22.31753 118.07351 34966 ft 474 kts 53°
2026-05-08 04:21 22.35261 118.13337 34968 ft 474 kts 53°
2026-05-08 04:21 22.38832 118.19434 34965 ft 475 kts 53°
2026-05-08 04:22 22.42334 118.25471 34962 ft 474 kts 54°
2026-05-08 04:22 22.45800 118.31575 34964 ft 473 kts 54°
2026-05-08 04:23 22.49244 118.37681 34966 ft 475 kts 54°
2026-05-08 04:23 22.52685 118.43789 34966 ft 474 kts 54°
2026-05-08 04:24 22.56118 118.49880 34967 ft 474 kts 54°
2026-05-08 04:24 22.59565 118.55968 34967 ft 476 kts 54°
2026-05-08 04:25 22.63045 118.62076 34966 ft 475 kts 54°
2026-05-08 04:25 22.66504 118.68145 34966 ft 475 kts 54°
2026-05-08 04:26 22.69985 118.74261 34967 ft 477 kts 54°
2026-05-08 04:26 22.73475 118.80403 34966 ft 477 kts 54°
2026-05-08 04:27 22.76938 118.86509 34966 ft 477 kts 54°
2026-05-08 04:27 22.80437 118.92687 34966 ft 478 kts 54°
2026-05-08 04:28 22.83930 118.98863 34966 ft 477 kts 54°
2026-05-08 04:28 22.87394 119.04996 34964 ft 476 kts 54°
2026-05-08 04:29 22.90858 119.11133 34964 ft 477 kts 54°
2026-05-08 04:29 22.94320 119.17274 34967 ft 477 kts 54°
2026-05-08 04:30 22.97787 119.23433 34962 ft 478 kts 54°
2026-05-08 04:30 23.01265 119.29619 34959 ft 478 kts 54°
2026-05-08 04:31 23.04738 119.35802 34962 ft 479 kts 54°
2026-05-08 04:31 23.08192 119.41962 34960 ft 478 kts 54°
2026-05-08 04:32 23.11665 119.48160 34960 ft 479 kts 54°
2026-05-08 04:32 23.14703 119.53588 34961 ft 480 kts 54°
2026-05-08 04:33 23.17874 119.59262 34958 ft 479 kts 54°
2026-05-08 04:33 23.21286 119.65368 34960 ft 479 kts 54°
2026-05-08 04:34 23.24736 119.71550 34958 ft 479 kts 54°
2026-05-08 04:34 23.28197 119.77755 34957 ft 480 kts 54°
2026-05-08 04:35 23.31668 119.83988 34961 ft 479 kts 54°
2026-05-08 04:35 23.35113 119.90051 34959 ft 479 kts 52°
2026-05-08 04:36 23.39250 119.95708 34958 ft 473 kts 42°
2026-05-08 04:36 23.43931 120.00668 34958 ft 469 kts 38°
2026-05-08 04:37 23.48766 120.05476 34956 ft 470 kts 37°
2026-05-08 04:37 23.53592 120.10301 34958 ft 470 kts 38°
2026-05-08 04:38 23.58395 120.15179 34963 ft 471 kts 38°
2026-05-08 04:38 23.63179 120.20091 34968 ft 471 kts 38°
2026-05-08 04:39 23.67949 120.25014 34970 ft 471 kts 38°
2026-05-08 04:39 23.72701 120.29932 34973 ft 472 kts 38°
2026-05-08 04:40 23.77490 120.34895 34974 ft 472 kts 38°
2026-05-08 04:40 23.82232 120.39816 34979 ft 472 kts 38°
2026-05-08 04:41 23.86995 120.44762 34982 ft 473 kts 38°
2026-05-08 04:41 23.91771 120.49729 34981 ft 473 kts 38°
2026-05-08 04:42 23.96537 120.54733 34991 ft 474 kts 39°
2026-05-08 04:42 24.01273 120.59737 35002 ft 474 kts 39°
2026-05-08 04:43 24.06044 120.64786 35013 ft 474 kts 39°
2026-05-08 04:43 24.10757 120.69775 35026 ft 473 kts 39°